Location: Born
(52.3757°N, 11.4707°E)
Time: 07:11:12
(UTC+00:00)

Daily predictions for brighter satellites

Satellite Brightness Start Highest point End
(mag) Time Altitude Azimuth Time Altitude Azimuth Time Altitude Azimuth
Cosmos 1707 Rocket 3.9 19:26:11 10° N 19:30:27 50° ENE 19:34:40 10° SSE
Cosmos 220 Rocket 4.0 19:26:29 10° NNW 19:30:43 89° WSW 19:34:57 10° SSE
Cosmos 1633 3.9 19:29:04 10° SSW 19:32:28 44° WNW 19:35:54 10° N
IRIDIUM 104 4.4 19:27:58 10° S 19:33:08 68° E 19:38:21 10° N
Resurs 01 Rocket 1.6 19:29:32 10° SSE 19:33:57 82° ENE 19:38:25 10° NNW
Landsat 7 4.3 19:30:59 10° SE 19:35:30 45° ENE 19:40:03 10° N
Cosmos 1441 Rocket 3.3 19:35:57 10° S 19:39:39 52° E 19:43:20 10° NNE
Cosmos 2360 4.3 19:35:45 10° NNW 19:41:32 74° NE 19:47:16 10° SE
IRIDIUM 114 4.3 19:37:04 10° S 19:42:17 80° E 19:47:32 10° N
Cosmos 614 Rocket 4.1 19:38:23 10° S 19:43:23 53° ESE 19:48:28 10° NNE
IGS 5A 3.8 19:41:35 10° SE 19:45:35 51° ENE 19:49:38 10° N
Cosmos 1900 4.3 19:41:42 10° SSW 19:46:38 73° SE 19:51:42 10° NE
USA 267 3.5 19:40:31 10° ENE 19:46:49 47° SE 19:53:05 10° SSW
GP-B 3.8 19:44:46 10° NNE 19:48:54 37° E 19:53:01 10° SSE
IRIDIUM 103 4.4 19:46:12 10° S 19:51:26 87° W 19:56:42 10° N
Cosmos 1821 Rocket 4.0 19:47:34 10° S 19:53:41 75° E 19:59:55 10° NNE
Cosmos 921 Rocket 3.9 19:50:39 10° N 19:54:33 34° ENE 19:58:03 12° ESE
CZ-2C R/B 3.8 19:50:11 10° NNE 19:54:52 84° WNW 19:59:26 10° SSW
COSMOS 2406 3.2 19:50:04 10° SSW 19:55:46 71° ESE 20:01:30 10° NE
Cosmos 1862 Rocket 4.0 19:52:37 10° N 19:56:59 48° ENE 20:01:01 12° SSE
Intercosmos 25 3.8 19:52:01 10° NNW 19:57:01 68° W 20:00:29 10° S
SL-16 R/B 3.4 19:52:03 10° NNW 19:57:06 31° NE 20:02:07 10° ESE
ERS-1 Rocket 3.5 19:56:08 11° SE 20:00:41 45° ENE 20:05:28 10° N
Lacrosse 5 2.3 19:55:49 10° WNW 20:00:51 61° NNE 20:05:54 10° E
Cosmos 2369 3.9 19:56:36 10° NNW 20:02:21 75° WSW 20:08:03 10° SSE
Cosmos 1862 3.9 20:00:57 10° SSW 20:04:58 62° WNW 20:09:02 10° N
Sich 1 3.1 20:01:25 10° S 20:05:52 87° E 20:10:20 10° NNE
Cosmos 1818 4.3 20:01:54 10° NW 20:07:09 49° WSW 20:12:22 10° SSE
BREEZE-M DEB (TANK) 2.2 20:06:04 10° WSW 20:08:47 40° S 20:09:55 19° ESE
Cosmos 2082 Rocket 2.6 20:05:38 10° S 20:10:58 43° ESE 20:16:18 10° NE
Cosmos 2123 Rocket 4.0 20:05:21 10° N 20:11:36 82° ENE 20:17:51 10° SSE
Cosmos 2278 3.8 20:05:54 10° NNW 20:11:40 89° SW 20:16:44 13° SSE
Spot 2 Rocket 3.6 20:11:33 10° SSE 20:16:40 84° WSW 20:21:49 10° NNW
Cosmos 1535 Rocket 4.5 20:10:45 10° S 20:16:49 66° E 20:22:53 10° NNE
Meteor 1-4 Rocket 2.5 20:15:57 10° NNW 20:19:27 76° WSW 20:22:26 13° S
Cosmos 2322 Rocket 3.3 20:14:25 10° NNW 20:19:39 35° NE 20:24:25 12° ESE
CZ-2C R/B 4.1 20:17:37 10° N 20:22:23 38° WNW 20:27:09 10° SW
Cosmos 1184 Rocket 3.1 20:21:01 16° SSE 20:23:23 45° E 20:26:34 10° NNE
CARTOSAT-1 3.7 20:20:05 16° SSE 20:23:27 63° ENE 20:27:45 10° N
Cosmos 1190 Rocket 4.0 20:18:28 10° SSW 20:23:42 68° ESE 20:29:00 10° NNE
USA 234 3.4 20:18:46 14° SE 20:24:22 64° SW 20:30:53 10° WNW
Terra 2.4 20:21:08 16° SE 20:24:37 46° ENE 20:29:10 10° N
Cosmos 407 Rocket 3.5 20:21:19 10° SSW 20:26:39 84° ESE 20:31:58 10° NNE
Cosmos 1933 Rocket 4.3 20:24:16 17° SSE 20:27:04 35° E 20:31:08 10° NNE
Cosmos 1605 Rocket 4.1 20:21:12 10° SSE 20:27:09 55° E 20:33:05 10° NNE
Cosmos 1666 Rocket 3.5 20:23:08 10° SSW 20:27:27 85° W 20:31:50 10° N
Okean 1 3.8 20:25:04 10° N 20:28:59 46° ENE 20:31:27 20° SE
Cosmos 1238 Rocket 2.9 20:28:02 23° SE 20:29:17 34° E 20:32:01 10° NNE
Cosmos 1437 Rocket 3.6 20:29:56 10° N 20:33:30 35° ENE 20:35:27 21° ESE
Cosmos 2360 Rocket 3.6 20:28:48 10° NNW 20:33:43 29° NE 20:38:35 10° E
CZ-4B DEB 4.3 20:35:36 21° SSE 20:37:45 86° W 20:41:06 10° NNW
Meteor 1-19 Rocket 4.3 20:33:07 10° N 20:38:30 59° ENE 20:42:13 20° SSE
ERBS 3.3 20:35:21 10° W 20:38:35 48° NNW 20:41:49 10° ENE
SPOT 5 2.6 20:35:55 19° SSE 20:38:55 77° ENE 20:43:19 10° NNW
USA 238 DEB 4.0 20:33:33 10° S 20:39:39 40° ESE 20:46:00 10° NE
USA 238 4.0 20:33:41 10° S 20:39:46 40° ESE 20:46:06 10° NE
Cosmos 1980 Rocket 2.5 20:37:10 10° NW 20:42:47 62° WSW 20:47:05 17° S
Iridium 4 Rocket 4.5 20:41:58 18° ESE 20:43:38 23° E 20:46:57 10° NNE
SPOT 1/Viking Rocket 3.9 20:39:53 12° S 20:44:36 62° WSW 20:49:50 10° NNW
Cosmos 1703 Rocket 3.8 20:40:24 10° N 20:44:41 52° ENE 20:47:05 24° SE
Cosmos 2242 Rocket 3.6 20:40:16 10° N 20:44:44 70° ENE 20:47:29 23° SSE
Cosmos 1763 Rocket 3.7 20:42:25 10° NNW 20:47:45 64° ENE 20:51:08 22° SE
Genesis I 3.9 20:44:58 10° NW 20:48:41 44° SW 20:50:44 23° S
SL-4 R/B 2.2 20:45:41 10° SW 20:49:17 38° SSE 20:51:35 18° E
BREEZE-M DEB (TANK) 2.8 20:46:48 10° WSW 20:49:49 63° S 20:58:37 10° E
Cosmos 405 Rocket 2.8 20:49:22 26° SSE 20:51:09 51° E 20:54:48 10° NNE
ATLAS 5 CENTAUR R/B 4.3 20:47:14 10° WNW 20:51:17 19° WSW 20:55:41 10° SSW
Cosmos 1140 Rocket 3.6 20:47:04 10° SSW 20:52:20 79° WNW 20:57:38 10° NNE
Cosmos 2333 Rocket 4.1 20:49:06 10° NNW 20:53:36 23° NNE 20:58:05 10° E
FAST 4.4 20:51:01 10° N 20:53:57 67° ENE 20:54:41 41° SSE
Cosmos 1697 Rocket 4.2 20:53:24 10° NW 20:58:08 29° WSW 21:02:52 10° SSW
USA 32 4.1 20:53:02 10° S 20:58:12 78° W 21:03:28 10° N
Cosmos 1633 Rocket 3.9 20:56:32 10° SSW 21:00:50 50° WNW 21:05:11 10° N
Cosmos 1833 Rocket 3.2 20:56:05 10° SW 21:01:39 61° NW 21:07:16 10° NNE
Meteor 1-18 Rocket 4.2 21:00:31 10° NNW 21:06:10 82° WSW 21:09:50 22° S
Okean 1-7 3.0 21:02:03 10° N 21:06:25 76° E 21:08:30 30° SSE
Cosmos 1153 Rocket 4.4 21:03:25 19° S 21:08:00 71° E 21:14:10 10° NNE
Cosmos 1867 3.5 21:02:35 10° SSW 21:08:00 71° SE 21:13:27 10° NE
CENTAUR R/B 3.1 21:04:46 21° S 21:08:12 37° ESE 21:14:33 10° NE
Resurs 01 Rocket 4.2 21:08:38 10° WSW 21:11:03 14° W 21:13:28 10° NW
Okean 3 4.2 21:08:20 10° N 21:12:24 39° ENE 21:13:59 28° ESE
FALCON 9 DEB 3.4 21:11:37 10° SW 21:14:59 45° SSE 21:15:22 43° SE
Meteor 2-4 Rocket 3.7 21:10:07 10° N 21:15:52 72° ENE 21:18:54 28° SSE
Cosmos 1515 3.7 21:12:58 10° NNW 21:16:49 80° W 21:18:23 34° S
Cosmos 1850 Rocket 4.3 21:14:18 26° SSE 21:17:00 49° ESE 21:22:06 10° NNE
SL-27 R/B 3.6 21:19:37 26° E 21:19:37 26° E 21:22:00 10° NE
Cosmos 44 3.5 21:15:38 10° NW 21:20:27 69° NE 21:23:09 27° ESE
ATLAS 5 CENTAUR R/B 1.8 21:18:26 10° NW 21:20:52 73° NE 21:23:25 25° ESE
Cosmos 676 Rocket 4.3 21:15:56 10° SSW 21:21:15 73° WNW 21:26:38 10° NNE
SWARM C 4.5 21:18:30 10° N 21:21:51 83° W 21:22:48 44° S
SWARM A 4.3 21:18:35 10° N 21:21:56 76° W 21:22:58 41° SSW
Meteor 1-25 Rocket 4.5 21:17:53 10° SSW 21:23:22 68° WNW 21:29:00 10° N
Cosmos 1470 Rocket 4.3 21:19:31 12° SSW 21:23:33 51° WNW 21:27:52 10° N
Spot 4 4.4 21:27:26 29° SE 21:29:30 48° ENE 21:34:09 10° N
USA 267 3.3 21:23:36 10° ENE 21:30:10 82° NNW 21:36:44 10° WSW
Cosmos 921 Rocket 4.3 21:29:03 10° NW 21:32:48 31° W 21:34:51 20° SSW
NOSS 3-2 (A) 3.3 21:28:16 10° SW 21:34:03 76° SE 21:40:47 10° NE
ERS-1 Rocket 4.3 21:36:08 15° SSW 21:39:38 31° W 21:44:08 10° NNW
Cosmos 841 Rocket 3.4 21:34:30 10° NNW 21:39:46 87° ENE 21:42:00 36° SSE
NOSS 3-2 (C) 3.5 21:35:51 19° SSW 21:40:00 58° SE 21:46:30 10° NE
Cosmos 540 Rocket 3.4 21:36:00 10° NNW 21:41:13 86° ENE 21:43:22 36° SSE
SL-16 R/B 2.3 21:36:02 10° NW 21:41:42 68° WSW 21:44:17 33° S
Lacrosse 5 2.0 21:38:54 10° WNW 21:43:53 56° SW 21:45:32 38° SSE
Cosmos 1570 Rocket 4.0 21:45:42 10° NNW 21:51:02 77° WSW 21:53:10 37° S
Cosmos 1741 Rocket 3.9 21:48:23 26° SSW 21:51:23 84° ESE 21:56:43 10° NNE
Tsikada Rocket 4.2 21:45:37 10° N 21:51:58 62° ENE 21:54:55 32° SE
Cosmos 2219 Rocket 3.3 21:47:35 10° NNW 21:52:52 37° NE 21:56:38 18° ESE
Cosmos 2208 Rocket 3.9 21:47:50 10° NNW 21:53:10 86° WSW 21:55:11 39° SSE
Cosmos 1814 Rocket 3.9 21:48:18 10° NNW 21:53:31 89° WSW 21:55:32 39° SSE
Cosmos 2082 Rocket 3.3 21:49:39 10° WSW 21:55:05 44° NW 22:00:32 10° NNE
Cosmos 2237 4.2 21:52:23 10° NNW 21:58:09 87° ENE 22:00:34 37° SSE
Cosmos 2084 Rocket 3.9 21:59:01 40° ESE 21:59:01 40° ESE 22:02:40 10° ENE
Terra 3.3 22:00:02 18° SW 22:02:32 29° W 22:06:41 10° NW
Cosmos 2322 Rocket 2.5 21:58:26 10° NW 22:04:01 58° WSW 22:06:13 35° S
EO 1 Del DPAF 3.7 22:01:20 10° NNE 22:04:57 43° E 22:04:57 43° E
Cosmos 2100 Rocket 4.1 22:05:35 25° SSW 22:09:21 70° WNW 22:15:31 10° N
Meteor 1-11 Rocket 3.7 22:09:09 38° S 22:11:19 71° E 22:17:03 10° NNE
Cosmos 1242 Rocket 2.6 22:08:18 10° N 22:11:54 63° ENE 22:12:07 61° E
Helios 1A 4.4 22:13:11 24° E 22:14:30 29° ENE 22:18:11 10° N
Cosmos 1869 Rocket 4.2 22:13:01 30° SW 22:14:56 53° WNW 22:19:20 10° N
ERBS 3.8 22:12:13 10° WNW 22:15:19 36° N 22:18:11 11° ENE
Cosmos 2360 Rocket 2.2 22:12:37 10° NNW 22:18:19 77° WSW 22:20:20 42° SSE
COSMOS 2428 3.4 22:13:49 10° NNW 22:19:24 48° NE 22:22:37 24° ESE
ATLAS 3B R/B 2.9 22:21:12 37° SSE 22:23:07 46° ESE 22:29:25 10° NE
Iridium 4 Rocket 3.9 22:21:45 29° SW 22:23:24 43° W 22:27:27 10° N
Cosmos 2173 Rocket 4.4 22:21:11 24° SSW 22:24:59 59° WNW 22:31:03 10° N
CRYOSAT 2 4.4 22:20:14 10° N 22:25:08 75° W 22:26:46 42° SSW
Cosmos 1500 4.3 22:25:10 29° WSW 22:26:21 37° WNW 22:29:52 10° N
ALOS 2 2.5 22:27:44 56° SSE 22:28:38 84° ENE 22:33:03 10° NNW
SL-4 R/B 2.7 22:24:56 10° W 22:27:13 34° WSW 22:27:13 34° WSW
Cosmos 1725 Rocket 4.0 22:27:19 35° S 22:30:11 88° W 22:36:35 10° N
USA 238 DEB 4.0 22:23:39 10° WSW 22:30:20 67° NW 22:37:21 10° NE
USA 238 4.0 22:23:46 10° WSW 22:30:26 67° NW 22:37:27 10° NE
Cosmos 1674 Rocket 3.4 22:28:08 10° N 22:32:29 89° W 22:33:13 62° S
SL-08 R/B 4.4 22:32:19 35° SSW 22:35:02 81° W 22:41:11 10° N
Cosmos 1536 2.7 22:34:39 64° SW 22:35:11 78° W 22:39:12 10° N
Cosmos 1666 2.9 22:37:32 53° WSW 22:37:59 58° WNW 22:41:43 10° N
Cosmos 1743 3.2 22:38:16 46° E 22:38:16 46° E 22:42:02 10° NNE
Cosmos 2333 Rocket 2.3 22:33:06 10° NNW 22:38:55 73° ENE 22:41:18 36° SE
Cosmos 1271 Rocket 2.7 22:36:50 10° N 22:40:37 68° ENE 22:40:47 66° E
Cosmos 1356 3.7 22:41:30 58° W 22:41:34 58° WNW 22:44:58 10° N
Cosmos 2237 Rocket 3.6 22:37:51 10° NNW 22:43:00 34° NE 22:47:32 13° ESE
Cosmos 2016 Rocket 4.3 22:39:51 29° SSW 22:43:11 64° WNW 22:49:33 10° N
MOS 1-B Rocket 4.2 22:37:58 10° N 22:43:40 60° WNW 22:46:44 27° SW
Cosmos 2061 Rocket 4.3 22:41:23 29° SSW 22:44:35 62° WNW 22:50:45 10° N
Lacrosse 4 Rocket 2.3 22:45:23 35° E 22:45:23 35° E 22:48:43 10° NE
Cosmos 1733 Rocket 3.3 22:50:59 49° SW 22:51:57 65° WNW 22:56:21 10° N
Meteor 2-11 Rocket 4.5 22:51:22 42° SSE 22:53:26 67° E 22:59:30 10° NNE
SL-27 R/B 4.2 22:53:08 22° W 22:54:11 26° NW 22:57:03 10° N
Thor Agena Rocket 3.8 22:49:55 10° N 22:54:56 61° WNW 22:57:00 34° SW
Cosmos 44 Rocket 3.6 22:50:26 10° NW 22:55:23 68° NE 22:57:31 34° ESE
Cosmos 836 Rocket 4.4 22:51:28 10° NNW 22:56:43 84° WSW 22:58:03 51° SSE
CENTAUR R/B 2.9 22:52:12 10° WSW 22:58:27 69° NW 23:05:57 10° NE
Cosmos 968 Rocket 3.7 22:59:01 47° SE 22:59:50 52° ESE 23:04:50 10° NNE
Cosmos 1975 3.5 23:02:22 42° E 23:02:28 42° E 23:06:18 10° NNE
SL-24 DEB 4.2 22:59:32 10° N 23:04:21 77° E 23:05:18 56° SSE
Cosmos 1782 Rocket 3.9 23:10:37 47° ESE 23:11:03 49° E 23:15:16 10° NNE
Cosmos 1378 3.8 23:08:59 10° NNW 23:12:29 43° W 23:12:29 43° W
USA 267 3.8 23:06:33 10° ENE 23:12:58 60° N 23:19:24 10° W
Cosmos 1707 3.9 23:11:54 10° N 23:15:30 33° ENE 23:16:13 31° E
Cosmos 2233 Rocket 4.2 23:14:30 35° SW 23:17:16 65° WNW 23:23:35 10° N
Cosmos 1842 3.1 23:13:33 10° N 23:17:31 85° E 23:17:41 81° SE
Cosmos 1464 Rocket 4.2 23:15:36 39° SSE 23:17:49 59° E 23:23:53 10° NNE
Cosmos 1908 Rocket 3.4 23:18:33 65° SSW 23:19:10 83° W 23:23:34 10° N
Cosmos 2344 4.4 23:10:47 10° NW 23:19:39 75° NE 23:31:58 10° SE
Helios 1B rocket 3.7 23:17:58 10° NE 23:21:34 28° E 23:21:48 28° ESE
Meteor 1-21 4.2 23:17:31 10° NNW 23:23:23 84° ENE 23:25:22 44° SSE
Cosmos 2227 Rocket 4.1 23:22:42 15° ESE 23:24:07 16° E 23:27:25 10° ENE
SL-16 R/B 4.3 23:22:14 10° WNW 23:24:45 13° W 23:26:08 12° WSW
Lacrosse 5 4.0 23:23:18 10° W 23:24:41 13° WSW 23:24:41 13° WSW
Cosmos 2322 4.1 23:23:05 10° NW 23:28:26 44° WSW 23:29:31 40° SW
NOSS 3-2 (C) 4.4 23:25:13 10° WSW 23:31:06 50° NNW 23:37:56 10° NE
Cosmos 1833 4.4 23:28:44 34° SW 23:31:14 69° NW 23:36:55 10° NNE
COSMOS 2487 3.2 23:32:14 44° WNW 23:32:20 44° WNW 23:35:41 10° NNE
Nadezhda 4 Rocket 4.1 23:29:05 10° N 23:35:25 74° ENE 23:38:03 37° SSE
Cosmos 2219 Rocket 2.4 23:31:32 10° NW 23:37:04 54° WSW 23:38:19 44° SSW
Cosmos 2084 Rocket 4.5 23:35:30 20° W 23:38:07 44° NNW 23:42:18 10° NE
Cosmos 783 Rocket 4.4 23:35:47 10° NNW 23:41:02 76° WSW 23:42:23 50° S
Cosmos 1975 Rocket 3.1 23:37:20 10° NNW 23:41:49 67° W 23:42:25 59° SW
Cosmos 1437 3.8 23:42:03 10° N 23:44:31 39° NE 23:44:31 39° NE
Cosmos 1513 Rocket 4.5 23:42:38 41° S 23:45:06 89° E 23:51:35 10° N
Okean 2 Rocket 3.7 23:45:22 41° SE 23:46:12 46° E 23:50:31 10° NNE
Cosmos 2034 Rocket 4.1 23:43:53 39° SSE 23:46:16 68° E 23:52:33 10° NNE
Cosmos 2322 Rocket 4.4 23:45:43 10° W 23:46:51 11° W 23:48:00 10° WSW
Cosmos 1503 Rocket 4.0 23:45:55 49° SSW 23:47:27 83° ESE 23:52:51 10° NNE
Landsat 4 3.5 23:45:14 10° NNE 23:49:04 83° ESE 23:49:12 81° SSE
Cosmos 1072 Rocket 4.4 23:46:51 42° SSW 23:49:06 82° W 23:55:15 10° N
Cosmos 1092 Rocket 4.3 23:43:24 10° N 23:49:37 61° ENE 23:52:45 30° SE
Helios 1A 3.8 23:49:48 37° WSW 23:49:58 37° W 23:53:55 10° NNW
SL-16 R/B 3.4 23:46:15 15° SE 23:51:09 45° ENE 23:57:03 10° N
ERBS 3.1 23:48:36 10° WNW 23:51:02 45° NW 23:51:02 45° NW
CZ-2D R/B 3.9 23:48:03 10° NE 23:52:21 23° E 23:54:54 17° SE
Cosmos 1300 Rocket 4.0 23:52:28 44° SE 23:53:10 49° E 23:57:20 10° NNE
SL-16 R/B 3.4 23:47:49 10° NNW 23:53:14 41° NE 23:58:36 10° ESE
Cosmos 1486 Rocket 4.4 23:52:11 34° WSW 23:54:13 56° WNW 23:59:22 10° NNE
Cosmos 1544 3.8 23:54:38 42° W 23:54:46 42° WNW 23:58:19 10° N
